Flag for U.S.A. Weather past 2 weeks in Washington DC, District of Columbia, U.S.A.

Now
52 °F

Passing clouds.


Feels Like: 50 °F
Forecast: 44 / 62 °F
Wind: 7 mph from Northeast

Location: Reagan National Airport

Current Time: Apr 27, 2015 at 4:01:26 AM

Latest Report: Apr 27, 2015 at 2:52 AM


Visibility: 10 mi

Pressure: 29.75 "Hg

Humidity: 47%

Dew point: 32 °F

Location of Washington DCLocation

Historic Weather in Washington DC — Graph

°F

Washington DC temperature yesterday

Maximum temperature yesterday: 67 °F (at 4:52 PM)
Minimum temperature yesterday: 45 °F (at 1:52 AM)
Average temperature yesterday: 55 °F

Past Weeks' High & Low Weather Summary

 TemperatureHumidityPressure
High83 °F (Apr 18, 4:52 PM)90% (Apr 14, 7:52 AM)30.43 "Hg (Apr 14, 7:52 AM)
Low40 °F (Apr 24, 5:52 AM)19% (Apr 24, 5:52 PM)29.50 "Hg (Apr 20, 7:52 PM)
Average61 °F53%29.99 "Hg
* Reported Apr 12 2:52 AM — Apr 27 2:52 AM, Washington DC, Weather by CustomWeather, © 2015

Note: Actual official high and low records may vary slightly from our data, if they occured in-between our weather recording intervals... More about our weather records

Advertising

Washington DC weather history for previous 24 hours

 ConditionsComfort  
Time TempWeatherWind HumidityBarometerVisibility
2:52 AM
Mon, Apr 27
52 °FPassing clouds.7 mph47%29.75 "Hg10 mi
1:52 AM54 °FPassing clouds.16 mph43%29.74 "Hg10 mi
12:52 AM50 °FPassing clouds.5 mph66%29.74 "Hg10 mi
11:52 PM
Sun, Apr 26
54 °FPassing clouds.No wind55%29.74 "Hg10 mi
10:52 PM56 °FPassing clouds.No wind49%29.73 "Hg10 mi
9:52 PM57 °FPassing clouds.6 mph47%29.73 "Hg10 mi
8:52 PM59 °FScattered clouds.5 mph48%29.71 "Hg10 mi
7:52 PM61 °FBroken clouds.10 mph38%29.70 "Hg10 mi
6:52 PM65 °FScattered clouds.6 mph34%29.69 "Hg10 mi
5:52 PM66 °FPartly sunny.6 mph32%29.68 "Hg10 mi
4:52 PM67 °FPartly sunny.10 mph30%29.68 "Hg10 mi
3:52 PM65 °FScattered clouds.7 mph32%29.68 "Hg10 mi
2:52 PM65 °FBroken clouds.No wind31%29.70 "Hg10 mi
1:52 PM65 °FBroken clouds.3 mph33%29.70 "Hg10 mi
12:52 PM62 °FScattered clouds.No wind35%29.72 "Hg10 mi
11:52 AM59 °FScattered clouds.No wind42%29.73 "Hg10 mi
10:52 AM57 °FScattered clouds.5 mph47%29.73 "Hg10 mi
9:52 AM54 °FScattered clouds.6 mph53%29.72 "Hg10 mi
8:52 AM50 °FPartly sunny.8 mph66%29.71 "Hg10 mi
7:52 AM48 °FOvercast.7 mph74%29.70 "Hg10 mi
6:52 AM46 °FOvercast.6 mph79%29.69 "Hg10 mi
5:52 AM46 °FOvercast.6 mph79%29.69 "Hg10 mi
4:52 AM46 °FMostly cloudy.8 mph83%29.69 "Hg9 mi
Weather by CustomWeather, © 2015

See weather overviewHow to use our weather pages